Content
SEND FEEDBACK

Daily
Averages
Monthly
Summary
United States of America

CHARLESTON, MISSOURI


Home > North America > United States > Missouri
Elevation: 330 feet     Latitude: 36 56N     Longitude: 089 21W

WEATHER
 
SELECT A DAY
Number of Records: 236,606;   Date Range: 7/19/04 - 8/28/14
 
SHARE

PRINT THIS DATA

[ ← Previous Day ]
WEATHER ALMANAC - JANUARY 6, 2013
[ Next Day → ]
[ °C ]   °F
Weather ElementAverageHighLow
Temperature36.9 °F42.8 °F (2:35 pm)28.4 °F (11:15 pm)
Dewpoint30 °F35.6 °F (12:35 am)23 °F (8:55 pm)
Humidity77 %93 % (4:35 am)53 % (2:55 pm)
Barometer30.28 in30.41 in (10:35 pm)30.16 in (4:35 am)
Wind Speed6.2 mph12.7 mph (10:35 am)
Wind Gust16.1 mph (10:35 am)
Weather ElementAverage
Visibility8.6 mi
Wind DirectionSSW (190.6 °)

Weather ElementTotal
Precipitation---
Heating Degree Days29.4 (Base 65)
Averaged from 67 records on January 6, 2013
WEATHER CONDITIONS BREAKOUT
WIND DIRECTION BREAKOUT
WEATHER BY HOUR - JANUARY 6, 2013
[ °C ]   °F
Local TimeTemperatureDewpointHumidityBarometerVisibilityWind DirectionWind SpeedGust SpeedPrecipitationEventsConditions
12:35 AM41.0 °F35.6 °F81 %30.21 in10.0 miSSW (210°)6.9 mphOvercast
12:55 AM41.0 °F35.6 °F81 %30.21 in10.0 miSW (220°)10.4 mphOvercast
1:35 AM41.0 °F35.6 °F81 %30.20 in10.0 miSW (220°)10.4 mphOvercast
1:55 AM39.2 °F35.6 °F87 %30.20 in10.0 miSW (220°)10.4 mphMostly Cloudy
2:15 AM39.2 °F33.8 °F81 %30.19 in10.0 miSW (220°)8.1 mphMostly Cloudy
2:35 AM39.2 °F33.8 °F81 %30.19 in7.0 miSW (220°)8.1 mphMostly Cloudy
2:55 AM37.4 °F33.8 °F87 %30.18 in7.0 miWSW (240°)5.8 mphMostly Cloudy
3:15 AM37.4 °F33.8 °F87 %30.18 in7.0 miSW (230°)6.9 mphClear
3:35 AM37.4 °F33.8 °F87 %30.17 in5.0 miSW (220°)6.9 mphScattered Clouds
3:55 AM35.6 °F32.0 °F87 %30.17 in4.0 miSSW (200°)6.9 mphMostly Cloudy
4:15 AM35.6 °F32.0 °F87 %30.17 in5.0 miSSW (210°)6.9 mphMostly Cloudy
4:35 AM35.6 °F33.8 °F93 %30.16 in5.0 miSSW (210°)6.9 mphScattered Clouds
4:55 AM35.6 °F32.0 °F87 %30.16 in5.0 miSSW (200°)6.9 mphScattered Clouds
5:15 AM35.6 °F32.0 °F87 %30.16 in5.0 miSSW (200°)6.9 mphScattered Clouds
5:55 AM35.6 °F33.8 °F93 %30.17 in7.0 miSSW (210°)9.2 mphClear
6:35 AM35.6 °F32.0 °F87 %30.18 in5.0 miSW (230°)9.2 mphScattered Clouds
6:55 AM35.6 °F32.0 °F87 %30.19 in4.0 miSW (230°)8.1 mphScattered Clouds
7:15 AM33.8 °F32.0 °F93 %30.20 in2.0 miSW (220°)6.9 mphOvercast
7:35 AM33.8 °F32.0 °F93 %30.20 in2.5 miSW (230°)6.9 mphScattered Clouds
7:55 AM35.6 °F32.0 °F87 %30.21 in4.0 miSW (230°)5.8 mphClear
8:15 AM35.6 °F33.8 °F93 %30.22 in7.0 miWSW (240°)5.8 mphClear
8:35 AM37.4 °F33.8 °F87 %30.23 in7.0 miWSW (250°)6.9 mphClear
8:55 AM37.4 °F33.8 °F87 %30.23 in7.0 miWSW (240°)5.8 mphClear
9:15 AM39.2 °F35.6 °F87 %30.23 in10.0 miWSW (240°)6.9 mphClear
9:35 AM39.2 °F35.6 °F87 %30.23 in10.0 miWest (260°)6.9 mphClear
9:55 AM41.0 °F35.6 °F81 %30.23 in10.0 miWest (270°)9.2 mphClear
10:15 AM41.0 °F35.6 °F81 %30.24 in10.0 miWest (280°)9.2 mphClear
10:35 AM41.0 °F33.8 °F76 %30.24 in10.0 miWest (280°)12.7 mph16.1 mphMostly Cloudy
10:55 AM41.0 °F32.0 °F70 %30.25 in10.0 miNW (310°)11.5 mphOvercast
11:15 AM39.2 °F32.0 °F75 %30.25 in10.0 miNW (320°)11.5 mphOvercast
11:35 AM41.0 °F30.2 °F65 %30.25 in10.0 miNW (310°)11.5 mphOvercast
11:55 AM39.2 °F30.2 °F70 %30.24 in10.0 miNW (310°)9.2 mphOvercast
12:15 PM41.0 °F30.2 °F65 %30.25 in10.0 miNNW (340°)10.4 mphOvercast
12:35 PM39.2 °F30.2 °F70 %30.25 in10.0 miNNW (330°)11.5 mphOvercast
12:55 PM39.2 °F30.2 °F70 %30.26 in10.0 miNW (320°)10.4 mphOvercast
1:15 PM41.0 °F28.4 °F61 %30.26 in10.0 miNNW (330°)10.4 mphScattered Clouds
1:35 PM41.0 °F28.4 °F61 %30.27 in10.0 miNNW (330°)6.9 mphScattered Clouds
1:55 PM41.0 °F28.4 °F61 %30.28 in10.0 miNNW (330°)4.6 mphScattered Clouds
2:15 PM41.0 °F28.4 °F61 %30.28 in10.0 miNNW (340°)10.4 mphScattered Clouds
2:35 PM42.8 °F28.4 °F57 %30.29 in10.0 miNNW (340°)8.1 mphScattered Clouds
2:55 PM42.8 °F26.6 °F53 %30.30 in10.0 miNW (320°)6.9 mphClear
3:15 PM42.8 °F26.6 °F53 %30.31 in10.0 miNW (320°)5.8 mphClear
3:35 PM42.8 °F28.4 °F57 %30.31 in10.0 miNorth (10°)4.6 mphClear
3:55 PM41.0 °F28.4 °F61 %30.32 in10.0 miNNW (340°)5.8 mphClear
4:15 PM41.0 °F26.6 °F57 %30.33 in10.0 miNorth (350°)5.8 mphClear
4:35 PM39.2 °F28.4 °F65 %30.34 in10.0 miNorth (350°)4.6 mphClear
4:55 PM39.2 °F28.4 °F65 %30.34 in10.0 miNNW (340°)3.5 mphClear
5:15 PM39.2 °F28.4 °F65 %30.35 in10.0 miCalmClear
5:35 PM35.6 °F26.6 °F70 %30.35 in10.0 miCalmClear
5:55 PM33.8 °F26.6 °F75 %30.36 in10.0 miCalmClear
6:15 PM33.8 °F26.6 °F75 %30.36 in10.0 miCalmClear
6:35 PM32.0 °F26.6 °F80 %30.37 in10.0 miCalmClear
6:55 PM32.0 °F26.6 °F80 %30.38 in10.0 miNNE (20°)5.8 mphClear
7:15 PM32.0 °F26.6 °F80 %30.38 in10.0 miNE (40°)5.8 mphClear
7:35 PM33.8 °F26.6 °F75 %30.38 in10.0 miNE (40°)3.5 mphClear
7:55 PM33.8 °F26.6 °F75 %30.38 in10.0 miNNE (30°)4.6 mphClear
8:15 PM33.8 °F26.6 °F75 %30.39 in10.0 miNE (40°)4.6 mphClear
8:35 PM33.8 °F26.6 °F75 %30.38 in10.0 miENE (60°)4.6 mphClear
8:55 PM30.2 °F23.0 °F75 %30.38 in10.0 miENE (60°)4.6 mphClear
9:15 PM30.2 °F24.8 °F80 %30.39 in10.0 miCalmClear
9:35 PM30.2 °F23.0 °F75 %30.40 in10.0 miCalmClear
9:55 PM30.2 °F24.8 °F80 %30.40 in10.0 miCalmClear
10:15 PM30.2 °F24.8 °F80 %30.40 in10.0 miCalmClear
10:35 PM30.2 °F24.8 °F80 %30.41 in10.0 miNNE (30°)3.5 mphClear
10:55 PM30.2 °F24.8 °F80 %30.41 in10.0 miNNE (30°)4.6 mphClear
11:15 PM28.4 °F24.8 °F86 %30.41 in7.0 miNE (50°)4.6 mphClear
11:55 PM28.4 °F24.8 °F86 %30.41 in7.0 miCalmClear
Hourly data recorded from KCIR, located miles away from Charleston, Missouri







STORIES FROM OUR PARTNERS